RADUGA 2 [-]

Last updated on Oct. 27, 2020, 5:53 a.m. UTC

1 09416U 76092A   20300.50319144 -.00000191  00000-0  00000-0 0  9998
2 09416   8.6413 298.5498 0027999 338.7937  21.5969  1.00292651108697
UTC
Height (km)
Latitude
Longitude
Inclination
Orbital Period
UTC large
Height (km)
Speed (km/s)
/
Latitude / Longitude
Inclination (degrees)
Orbital Period (minutes)
Azimuth
Elevation
Range (km)
Doppler Factor
iOS Compass Heading
iOS Angle

Next 30 passes for location: Hong Kong

Rise time Rise Azimuth (degrees) Set time Set Azimuth (degrees) Duration Max altitude (degrees)

No matching passes for this satellites